| time (UTC) | temp C | wind direction | speed KPH | gust KPH | rain 1hr cm | rain 24hr cm | rain mn cm | humidity % | barometer mb |
| 20260505152715 | 17 | 93 | 1.6 | 6.4 | 0.00 | 0.00 | 0.00 | 27 | 1013.7 |
| 20260505150830 | 17 | 180 | 0.0 | 3.2 | 0.00 | 0.00 | 0.00 | 29 | 1013.8 |
| 20260505140114 | 13 | 202 | 0.0 | 1.6 | 0.00 | 0.00 | 0.00 | 44 | 1013.8 |
| 20260505124516 | 8 | 360 | 4.8 | 9.7 | 0.00 | 0.00 | 0.00 | 55 | 1013.0 |
| 20260505123430 | 8 | 22 | 0.0 | 0.0 | 0.00 | 0.00 | 0.00 | 54 | 1012.8 |
| 20260505122516 | 9 | 22 | 0.0 | 0.0 | 0.00 | 0.00 | 0.00 | 53 | 1012.9 |
| 20260505121615 | 9 | 22 | 0.0 | 0.0 | 0.00 | 0.00 | 0.00 | 50 | 1012.8 |
| 20260505120615 | 9 | 22 | 0.0 | 0.0 | 0.00 | 0.00 | 0.00 | 50 | 1012.8 |
| 20260505115614 | 9 | 360 | 8.0 | 9.7 | 0.00 | 0.00 | 0.00 | 52 | 1012.7 |
| 20260505114614 | 10 | 22 | 6.4 | 8.0 | 0.00 | 0.00 | 0.00 | 51 | 1012.8 |
| 20260505113630 | 10 | 22 | 0.0 | 1.6 | 0.00 | 0.00 | 0.00 | 51 | 1012.8 |
| 20260505112714 | 9 | 22 | 1.6 | 4.8 | 0.00 | 0.00 | 0.00 | 50 | 1012.8 |
| 20260505112631 | 9 | 22 | 0.0 | 3.2 | 0.00 | 0.00 | 0.00 | 51 | 1012.9 |
| 20260505111713 | 10 | 1 | 1.6 | 4.8 | 0.00 | 0.00 | 0.00 | 50 | 1012.8 |
| 20260505110731 | 10 | 270 | 3.2 | 6.4 | 0.00 | 0.00 | 0.00 | 50 | 1012.6 |
| 20260505101814 | 10 | 135 | 0.0 | 0.0 | 0.00 | 0.00 | 0.00 | 46 | 1012.6 |
| 20260505100831 | 10 | 202 | 0.0 | 0.0 | 0.00 | 0.00 | 0.00 | 45 | 1012.4 |
| 20260505095913 | 11 | 202 | 0.0 | 0.0 | 0.00 | 0.00 | 0.00 | 45 | 1012.5 |
| 20260505094932 | 11 | 247 | 0.0 | 0.0 | 0.00 | 0.00 | 0.00 | 42 | 1012.4 |
| 20260505093915 | 11 | 247 | 0.0 | 0.0 | 0.00 | 0.00 | 0.00 | 43 | 1012.4 |
| 20260505093014 | 11 | 22 | 1.6 | 3.2 | 0.00 | 0.00 | 0.00 | 44 | 1012.4 |
| 20260505092931 | 11 | 22 | 3.2 | 4.8 | 0.00 | 0.00 | 0.00 | 44 | 1012.4 |
| 20260505091931 | 11 | 360 | 0.0 | 0.0 | 0.00 | 0.00 | 0.00 | 43 | 1012.5 |
| 20260505091014 | 11 | 360 | 0.0 | 0.0 | 0.00 | 0.00 | 0.00 | 41 | 1012.5 |
| 20260505090113 | 11 | 225 | 0.0 | 0.0 | 0.00 | 0.00 | 0.00 | 41 | 1012.4 |
| 20260505085131 | 12 | 337 | 0.0 | 0.0 | 0.00 | 0.00 | 0.00 | 40 | 1012.5 |
| 20260505084116 | 12 | 337 | 0.0 | 3.2 | 0.00 | 0.00 | 0.00 | 41 | 1012.7 |
| 20260505083116 | 11 | 360 | 0.0 | 1.6 | 0.00 | 0.00 | 0.00 | 41 | 1012.7 |
| 20260505082129 | 11 | 315 | 0.0 | 1.6 | 0.00 | 0.00 | 0.00 | 41 | 1012.8 |
| 20260505081212 | 11 | 315 | 0.0 | 0.0 | 0.00 | 0.00 | 0.00 | 41 | 1012.9 |
| 20260505080230 | 12 | 112 | 0.0 | 0.0 | 0.00 | 0.00 | 0.00 | 34 | 1012.8 |
| 20260505074330 | 12 | 157 | 0.0 | 0.0 | 0.00 | 0.00 | 0.00 | 36 | 1013.0 |
| 20260505073414 | 12 | 180 | 0.0 | 1.6 | 0.00 | 0.00 | 0.00 | 36 | 1012.9 |
| 20260505073331 | 12 | 180 | 0.0 | 0.0 | 0.00 | 0.00 | 0.00 | 36 | 1012.8 |
| 20260505072316 | 13 | 180 | 0.0 | 0.0 | 0.00 | 0.00 | 0.00 | 34 | 1012.7 |
| 20260505072215 | 13 | 180 | 0.0 | 0.0 | 0.00 | 0.00 | 0.00 | 34 | 1012.9 |
| 20260505071216 | 14 | 180 | 0.0 | 0.0 | 0.00 | 0.00 | 0.00 | 30 | 1012.8 |
| 20260505070229 | 15 | 67 | 0.0 | 0.0 | 0.00 | 0.00 | 0.00 | 27 | 1012.8 |
| 20260505065228 | 14 | 90 | 4.8 | 6.4 | 0.00 | 0.00 | 0.00 | 29 | 1012.7 |
| 20260505064315 | 13 | 45 | 0.0 | 0.0 | 0.00 | 0.00 | 0.00 | 32 | 1012.5 |
| 20260505063412 | 13 | 33 | 1.6 | 3.2 | 0.00 | 0.00 | 0.00 | 33 | 1012.4 |
| 20260505062414 | 13 | 22 | 3.2 | 4.8 | 0.00 | 0.00 | 0.00 | 36 | 1012.2 |
| 20260505062332 | 13 | 38 | 3.2 | 4.8 | 0.00 | 0.00 | 0.00 | 36 | 1012.3 |
| 20260505061414 | 13 | 67 | 0.0 | 0.0 | 0.00 | 0.00 | 0.00 | 33 | 1012.3 |
| 20260505060429 | 14 | 112 | 0.0 | 1.6 | 0.00 | 0.00 | 0.00 | 31 | 1012.2 |
| 20260505055512 | 14 | 247 | 0.0 | 0.0 | 0.00 | 0.00 | 0.00 | 33 | 1012.0 |
| 20260505054511 | 14 | 225 | 0.0 | 0.0 | 0.00 | 0.00 | 0.00 | 34 | 1012.1 |
| 20260505053528 | 15 | 202 | 0.0 | 0.0 | 0.00 | 0.00 | 0.00 | 32 | 1012.0 |
| 20260505052613 | 15 | 180 | 0.0 | 0.0 | 0.00 | 0.00 | 0.00 | 30 | 1012.1 |
| 20260505051611 | 15 | 180 | 0.0 | 0.0 | 0.00 | 0.00 | 0.00 | 31 | 1012.2 |
| 20260505050612 | 16 | 180 | 0.0 | 0.0 | 0.00 | 0.00 | 0.00 | 28 | 1012.2 |
| 20260505040912 | 18 | 199 | 1.6 | 4.8 | 0.00 | 0.00 | 0.00 | 24 | 1011.9 |
| 20260505035929 | 18 | 157 | 1.6 | 3.2 | 0.00 | 0.00 | 0.00 | 24 | 1011.6 |
| 20260505033013 | 19 | 202 | 0.0 | 1.6 | 0.00 | 0.00 | 0.00 | 23 | 1010.9 |
| 20260505031027 | 19 | 213 | 6.4 | 9.7 | 0.00 | 0.00 | 0.00 | 22 | 1010.9 |
| 20260505030028 | 20 | 204 | 4.8 | 6.4 | 0.00 | 0.00 | 0.00 | 21 | 1010.7 |
| 20260505025026 | 20 | 225 | 3.2 | 4.8 | 0.00 | 0.00 | 0.00 | 20 | 1010.5 |
| 20260505024112 | 20 | 230 | 8.0 | 11.3 | 0.00 | 0.00 | 0.00 | 20 | 1010.4 |
| 20260505023210 | 21 | 214 | 4.8 | 8.0 | 0.00 | 0.00 | 0.00 | 19 | 1010.3 |
| 20260505022210 | 21 | 222 | 9.7 | 14.5 | 0.00 | 0.00 | 0.00 | 18 | 1010.1 |
| 20260505021229 | 22 | 225 | 4.8 | 6.4 | 0.00 | 0.00 | 0.00 | 17 | 1010.2 |
| 20260505020312 | 22 | 228 | 9.7 | 16.1 | 0.00 | 0.00 | 0.00 | 17 | 1010.0 |
| 20260505015326 | 22 | 228 | 8.0 | 12.9 | 0.00 | 0.00 | 0.00 | 16 | 1009.8 |
| 20260505014313 | 22 | 236 | 9.7 | 14.5 | 0.00 | 0.00 | 0.00 | 16 | 1009.8 |
| 20260505013412 | 22 | 232 | 20.9 | 35.4 | 0.00 | 0.00 | 0.00 | 16 | 1009.8 |
| 20260505011430 | 22 | 228 | 9.7 | 16.1 | 0.00 | 0.00 | 0.00 | 17 | 1009.9 |
| 20260505011328 | 22 | 221 | 8.0 | 16.1 | 0.00 | 0.00 | 0.00 | 17 | 1010.0 |
| 20260505010311 | 22 | 207 | 11.3 | 16.1 | 0.00 | 0.00 | 0.00 | 17 | 1010.0 |
| 20260505005410 | 22 | 217 | 14.5 | 20.9 | 0.00 | 0.00 | 0.00 | 16 | 1010.0 |
| 20260505004426 | 22 | 217 | 12.9 | 20.9 | 0.00 | 0.00 | 0.00 | 17 | 1009.9 |
| 20260505003512 | 22 | 225 | 17.7 | 24.1 | 0.00 | 0.00 | 0.00 | 17 | 1009.9 |
| 20260505002528 | 22 | 231 | 17.7 | 30.6 | 0.00 | 0.00 | 0.00 | 18 | 1009.9 |
| 20260505001610 | 22 | 228 | 16.1 | 27.4 | 0.00 | 0.00 | 0.00 | 18 | 1009.9 |
| 20260505000629 | 22 | 221 | 17.7 | 29.0 | 0.00 | 0.00 | 0.00 | 20 | 1010.0 |
| 20260504235612 | 23 | 236 | 19.3 | 30.6 | 0.00 | 0.00 | 0.00 | 20 | 1009.9 |
| 20260504235529 | 23 | 233 | 16.1 | 25.7 | 0.00 | 0.00 | 0.00 | 20 | 1009.9 |
| 20260504234511 | 23 | 229 | 19.3 | 30.6 | 0.00 | 0.00 | 0.00 | 21 | 1009.8 |
| 20260504233527 | 23 | 233 | 19.3 | 30.6 | 0.00 | 0.00 | 0.00 | 22 | 1009.8 |
| 20260504232527 | 24 | 223 | 8.0 | 12.9 | 0.00 | 0.00 | 0.00 | 23 | 1009.8 |
| 20260504230511 | 23 | 216 | 14.5 | 22.5 | 0.00 | 0.00 | 0.00 | 24 | 1009.7 |
| 20260504230412 | 23 | 227 | 12.9 | 22.5 | 0.00 | 0.00 | 0.00 | 24 | 1009.8 |
| 20260504225410 | 23 | 234 | 14.5 | 22.5 | 0.00 | 0.00 | 0.00 | 25 | 1009.8 |
| 20260504224510 | 23 | 245 | 14.5 | 29.0 | 0.00 | 0.00 | 0.00 | 25 | 1009.8 |
| 20260504223511 | 24 | 242 | 16.1 | 20.9 | 0.00 | 0.00 | 0.00 | 24 | 1009.7 |
| 20260504223426 | 24 | 209 | 14.5 | 19.3 | 0.00 | 0.00 | 0.00 | 24 | 1009.7 |
| 20260504222425 | 24 | 229 | 22.5 | 30.6 | 0.00 | 0.00 | 0.00 | 24 | 1009.9 |
| 20260504221413 | 24 | 237 | 17.7 | 25.7 | 0.00 | 0.00 | 0.00 | 25 | 1009.7 |
| 20260504220510 | 24 | 238 | 17.7 | 32.2 | 0.00 | 0.00 | 0.00 | 24 | 1009.8 |
| 20260504215528 | 24 | 234 | 16.1 | 22.5 | 0.00 | 0.00 | 0.00 | 23 | 1009.9 |
| 20260504215426 | 24 | 232 | 22.5 | 33.8 | 0.00 | 0.00 | 0.00 | 24 | 1009.9 |
| 20260504214511 | 24 | 233 | 20.9 | 33.8 | 0.00 | 0.00 | 0.00 | 23 | 1009.9 |
| 20260504213528 | 24 | 210 | 20.9 | 33.8 | 0.00 | 0.00 | 0.00 | 22 | 1010.0 |
| 20260504212511 | 24 | 249 | 12.9 | 19.3 | 0.00 | 0.00 | 0.00 | 22 | 1009.9 |
| 20260504211527 | 24 | 222 | 14.5 | 27.4 | 0.00 | 0.00 | 0.00 | 22 | 1010.4 |
| 20260504210512 | 25 | 217 | 14.5 | 19.3 | 0.00 | 0.00 | 0.00 | 21 | 1010.4 |
| 20260504205511 | 24 | 218 | 8.0 | 12.9 | 0.00 | 0.00 | 0.00 | 21 | 1010.4 |
| 20260504204610 | 24 | 225 | 14.5 | 24.1 | 0.00 | 0.00 | 0.00 | 21 | 1010.4 |
| 20260504204526 | 24 | 222 | 19.3 | 29.0 | 0.00 | 0.00 | 0.00 | 21 | 1010.6 |
| 20260504203613 | 24 | 275 | 11.3 | 20.9 | 0.00 | 0.00 | 0.00 | 22 | 1010.5 |
| 20260504202710 | 24 | 255 | 12.9 | 25.7 | 0.00 | 0.00 | 0.00 | 22 | 1010.6 |
| 20260504201727 | 24 | 255 | 14.5 | 20.9 | 0.00 | 0.00 | 0.00 | 23 | 1010.5 |
| 20260504200712 | 24 | 247 | 12.9 | 22.5 | 0.00 | 0.00 | 0.00 | 23 | 1010.6 |
| 20260504200626 | 24 | 244 | 17.7 | 27.4 | 0.00 | 0.00 | 0.00 | 23 | 1010.5 |
| 20260504195712 | 23 | 247 | 6.4 | 16.1 | 0.00 | 0.00 | 0.00 | 25 | 1010.5 |
| 20260504193910 | 24 | 205 | 14.5 | 20.9 | 0.00 | 0.00 | 0.00 | 25 | 1010.7 |
| 20260504193812 | 24 | 223 | 16.1 | 22.5 | 0.00 | 0.00 | 0.00 | 25 | 1010.7 |
| 20260504192811 | 24 | 224 | 19.3 | 27.4 | 0.00 | 0.00 | 0.00 | 26 | 1010.7 |
| 20260504191909 | 24 | 238 | 17.7 | 22.5 | 0.00 | 0.00 | 0.00 | 25 | 1010.7 |
| 20260504190926 | 25 | 207 | 14.5 | 22.5 | 0.00 | 0.00 | 0.00 | 24 | 1010.9 |
| 20260504190811 | 25 | 182 | 11.3 | 20.9 | 0.00 | 0.00 | 0.00 | 24 | 1010.8 |
| 20260504185910 | 25 | 211 | 16.1 | 25.7 | 0.00 | 0.00 | 0.00 | 23 | 1010.7 |
| 20260504184928 | 26 | 101 | 1.6 | 6.4 | 0.00 | 0.00 | 0.00 | 22 | 1010.9 |
| 20260504183911 | 25 | 191 | 12.9 | 20.9 | 0.00 | 0.00 | 0.00 | 21 | 1011.3 |
| 20260504181010 | 25 | 127 | 4.8 | 9.7 | 0.00 | 0.00 | 0.00 | 26 | 1011.5 |
| 20260504180929 | 25 | 121 | 6.4 | 12.9 | 0.00 | 0.00 | 0.00 | 26 | 1011.5 |
| 20260504175927 | 24 | 22 | 4.8 | 9.7 | 0.00 | 0.00 | 0.00 | 28 | 1011.5 |
| 20260504174926 | 24 | 104 | 3.2 | 8.0 | 0.00 | 0.00 | 0.00 | 28 | 1011.8 |
| 20260504173913 | 24 | 98 | 0.0 | 3.2 | 0.00 | 0.00 | 0.00 | 30 | 1011.9 |
| 20260504172928 | 23 | 157 | 0.0 | 1.6 | 0.00 | 0.00 | 0.00 | 30 | 1011.9 |
| 20260504171946 | 23 | 157 | 1.6 | 6.4 | 0.00 | 0.00 | 0.00 | 32 | 1011.9 |
| 20260504171030 | 23 | 191 | 3.2 | 6.4 | 0.00 | 0.00 | 0.00 | 32 | 1012.0 |
| 20260504160329 | 22 | 157 | 6.4 | 12.9 | 0.00 | 0.00 | 0.00 | 36 | 1012.2 |
| 20260504160249 | 22 | 160 | 1.6 | 11.3 | 0.00 | 0.00 | 0.00 | 37 | 1012.2 |